Regional Weather Roundup
Issued by NWS Albany, NY

Home | Current Version | Previous Version | Text Only | Print | Product List | Glossary On
Versions: 1 2 3 4 5 6 7 8 9 10 11 12 13 14 15 16 17 18 19 20 21 22 23 24 25 26 27 28
000
ASUS41 KALY 231310
RWRALY

NEW YORK STATE HOURLY WEATHER ROUNDUP
NATIONAL WEATHER SERVICE ALBANY NY
900 AM EDT MON APR 23 2018

NOTE: "FAIR" INDICATES FEW OR NO CLOUDS BELOW 12,000 FEET WITH NO
SIGNIFICANT WEATHER AND/OR NO OBSTRUCTIONS TO VISIBILITY.

NYZ032-033-038>043-046>054-057>066-NYZ062>081-082-084-231400-
EAST


CITY           SKY/WX    TMP DP  RH WIND       PRES   REMARKS
ALBANY         FAIR      47  25  42 CALM      30.51S
GLENS FALLS    FAIR      44  25  47 CALM      30.51S
POUGHKEEPSIE   FAIR      47  25  42 CALM      30.48F
NEWBURGH       SUNNY     48  28  46 VRB5      30.48F
MONTGOMERY     FAIR      48  27  44 CALM      30.47S
WHITE PLAINS   FAIR      53  17  24 E13       30.46S
ISLIP          FAIR      55  24  30 E14       30.46F
NEW YORK CITY  FAIR      51  28  41 NE14      30.48R
CENTRAL PARK   FAIR      54  22  28 NE10      30.50R
$$

NYZ005>009-017-018-044>046-055-056-231400-
CENTRAL


CITY           SKY/WX    TMP DP  RH WIND       PRES   REMARKS
FULTON         FAIR      46  25  43 SE3       30.46S
SYRACUSE       FAIR      42  28  57 E3        30.47S
ROME           FAIR      46  24  42 SE6       30.49S
ELMIRA         FAIR      39  28  64 CALM      30.46R
BINGHAMTON     FAIR      44  19  36 SE6       30.44R
MONTICELLO     FAIR      48  21  34 E8        30.47R
$$

NYZ026>034-041>043-087-231400-
NORTH


CITY           SKY/WX    TMP DP  RH WIND       PRES   REMARKS
WATERTOWN      FAIR      50  30  46 N3        30.46S
FORT DRUM      NOT AVBL
OGDENSBURG     FAIR      47  29  47 S3        30.47F
MASSENA        FAIR      47  30  51 CALM      30.49S
SARANAC LAKE   FAIR      40  21  46 S3        30.46S
PLATTSBURGH    FAIR      40  29  64 SE7       30.49S
$$

NYZ001>004-010>016-019>021-085-231400-
WEST


CITY           SKY/WX    TMP DP  RH WIND       PRES   REMARKS
NIAGARA FALLS  FAIR      54  25  32 SE7       30.39S
BUFFALO        FAIR      52  21  29 SE8       30.39S
DUNKIRK        FAIR      56  27  32 SE15      30.37R
JAMESTOWN      FAIR      50  26  39 SE9       30.37F
WELLSVILLE     FAIR      49  19  30 SE13      30.42R
ROCHESTER      FAIR      47  28  47 CALM      30.43S
PENN YAN       FAIR      44  25  47 W5        30.44S
$$

             KEY
       WCI = WIND CHILL INDEX
       VSB = VISIBILITY
       HX  = HEAT INDEX
$$




USA.gov is the U.S. government's official web portal to all federal, state and local government web resources and services.